900  
ASUS41 KLWX 160011  
RWRLWX  
 
REGIONAL WEATHER ROUNDUP  
NATIONAL WEATHER SERVICE BALTIMORE MD/WASHINGTON DC  
800 PM EDT MON JUL 15 2019  
 
NOTE: "FAIR" INDICATES FEW OR NO CLOUDS BELOW 12,000 FEET  
WITH NO SIGNIFICANT WEATHER AND/OR S TO VISIBILITY
.  
TC=TEMPERATURE CELSIUS  
 
* =NON NWS SITE. STATION DOES NOT REPORT PRECIPITATION (E.G. RAIN,  
SNOW, ETC.), THUNDER, OR FOG.
 
 
DCZ001-MDZ009-015-VAZ040>042-051-053>054-160100-  
WASHINGTON METRO  
 
CITY SKY/WX TMP DP RH WIND PRES REMARKS
 
WASHINGTON NAT FAIR 87 64 46 N6 30.04R  
DULLES FAIR 85 64 49 NE6 30.04R  
ANDREWS AFB FAIR 81 69 65 E6 30.04R  
FT BELVOIR FAIR 82 72 73 CALM 30.03R  
QUANTICO FAIR 89 71 55 SW5 30.04R HX 95  
COLLEGE PARK* FAIR 86 61 43 CALM 30.04R  
LEESBURG* FAIR 88 68 51 CALM 30.06R HX 91  
MANASSAS* FAIR 86 70 58 S3 30.04R HX 90  
GAITHERSBURG* FAIR 83 64 52 CALM 30.07R  
 

 
 
MDZ006>007-011-014-160100-  
BALTIMORE METRO  
 
CITY SKY/WX TMP DP RH WIND PRES REMARKS
 
BWI AIRPORT MOCLDY 84 63 49 NW3 30.03R  
MD SCIENCE CTR N/A 83 65 54 MISG 30.04R  
MARTIN STATE CLEAR 82 66 57 SE5 30.05S  
ANNAPOLIS FAIR 86 67 52 S5 30.04R  
ABERDEEN* MOCLDY 81 64 57 CALM 30.04R  
FORT MEADE* FAIR 75 68 78 CALM 30.07R  
 

 
 
MDZ012-015-019>023-160100-  
MARYLAND EASTERN SHORE  
 
CITY SKY/WX TMP DP RH WIND PRES REMARKS
 
OCEAN CITY FAIR 78 69 73 SE5 30.06R  
SALISBURY FAIR 80 70 71 SE8 30.04R  
BAY BRIDGE AP* FAIR 84 64 51 CALM 30.05R  
CAMBRIDGE* CLEAR 81 70 69 CALM 30.04S  
EASTON* PTCLDY 84 64 51 CALM 30.08R  
 

 
 
MDZ017>025-160100-  
SOUTHERN MARYLAND  
 
CITY SKY/WX TMP DP RH WIND PRES REMARKS
 
PATUXENT RIVER FAIR 83 70 64 S5 30.04R  
ST INIGOES FAIR 85 70 60 E3 30.03R  
LEONARDTOWN* FAIR 81 70 69 CALM 30.06R  
 

 
 
MDZ003>005-160100-  
NORTH CENTRAL MARYLAND  
 
CITY SKY/WX TMP DP RH WIND PRES REMARKS
 
FREDERICK* CLEAR 86 64 48 CALM 30.07R  
HAGERSTOWN APT FAIR 87 60 40 E5 30.06R  
 

 
 
MDZ501>502-160100-  
WESTERN MARYLAND  
 
CITY SKY/WX TMP DP RH WIND PRES REMARKS
 
OAKLAND* FAIR 73 63 68 CALM 30.20S  
CUMBERLAND* FAIR 84 64 49 CALM 30.11R  
 

 
 
VAZ025>031-160100-  
SHENANDOAH VALLEY  
 
CITY SKY/WX TMP DP RH WIND PRES REMARKS
 
WINCHESTER* FAIR 84 64 51 E3 30.08R  
FRONT ROYAL* FAIR 86 72 62 CALM 30.05R HX 92  
LURAY* FAIR 81 70 69 S7 30.08R  
NEW MARKET* FAIR 76 74 96 CALM 30.08R  
STAUNTON* MOCLDY 75 69 81 S7 30.14R  
WAYNESBORO* FAIR 73 73 99 CALM 30.15R  
 

 
 
WVZ021-048>050-054>055-160100-  
EASTERN WEST VIRGINIA PANHANDLE  
 
CITY SKY/WX TMP DP RH WIND PRES REMARKS
 
MARTINSBURG FAIR 88 62 41 NW3 30.04R  
PETERSBURG* FAIR 81 72 74 W6 30.09R  
 

 
 
VAZ036>039-050-160100-  
CENTRAL FOOTHILLS  
 
CITY SKY/WX TMP DP RH WIND PRES REMARKS
 
CHARLOTTESVILL FAIR 79 68 69 SW5 30.07S  
CULPEPER* FAIR 85 70 60 SW3 30.05R HX 90  
ORANGE* FAIR 82 72 69 SW5 30.05S  
GORDONSVILLE* FAIR 83 74 73 SW3 30.06R HX 90  
WARRENTON* FAIR 86 68 55 CALM 30.05R HX 90  
 

 
 
VAZ055>057-160100-  
NORTH AND CENTRAL PIEDMONT  
 
CITY SKY/WX TMP DP RH WIND PRES REMARKS
 
FREDERICKSBRG* FAIR 88 73 60 SW3 30.03R HX 95  
STAFFORD* FAIR 89 69 50 CALM 30.08R HX 93  
 

 
 
NCZ024-NYZ072-PAZ021-071-VAZ022-071-160100-  
OTHER REGIONAL OBSERVATIONS  
 
CITY SKY/WX TMP DP RH WIND PRES REMARKS
 
NEW YORK CITY FAIR 83 56 39 VRB3 30.03S  
PHILADELPHIA MOCLDY 85 57 38 NW8 30.03R  
PITTSBURGH FAIR 83 63 50 W3 30.09R  
ROANOKE MOCLDY 75 68 78 NW10 30.18R THUNDER  
RICHMOND MOCLDY 85 72 65 S5 30.04S HX 91  
RALEIGH MOCLDY 88 70 55 S5 30.06R HX 93  
 

 
 
ANZ530>537-160100-  
MARINE OBSERVATIONS  
 
STATION/POSITION TIME TEMP WIND PRES
 
AIR SEA DIR/SP/G  
(UTC) (F) (DEG/KT/KT) (MB)  
THOMAS PT LIGHT 0000 83 83 150/ 4/ 4 1018.3R  
BALT KEY BRIDGE 2330 83 140/ 6/ 8 1016.9R  
COVE POINT 2330 83 170/ 7/ 8 1017.6R  
LEWISETTA 2324 89 88 CALM 1017.2  
SOLOMONS ISLAND 2330 84 86 160/ 7/ 8 1016.6R  
PINEY POINT 2330 CALM / 2 N/A  
 

 
 
 
 
CLICK HERE TO GO TO PREVIOUS BULLETINS.

The Nexlab VA Page
The Nexlab MD Page
The Nexlab WV Page Main Text Page